SCP
0 0 0 0 0 0 0 0 0 0 0 0 0 0 0 0 0 0 0 0 0 0 0 0 0 0 0 0 0 0 0 0 0 0 0 0 0 0 0 0 0 0 0
0 0 0 0 0 0 0 0 0 0 0 0 0 0 0 0 0 0 0 0 0 0 0 0 0 0 0 0 0 0 0 0 0 0 0 0 0 0 0 0 0 0 0
0 0 0 0 0 0 0 0 0 0 0 0 0 0 0 0 0 0 0 0 0 0 0 0 0 0 0 0 0 0 0 0 0 0 0 0 0 0 0 0 0 0 0
0 0 0 0 0 0 0 0 0 0 0 0 0 0 0 0 0 0 0 0 0 0 0 0 0 0 0 0 0 0 0 0 0 0 0 0 0 0 0 0 0 0 0
0 0 0 0 0 0 0 0 0 0 0 0 0 0 0 0 0 0 0 0 0 0 0 0 0 0 0 0 0 0 0 0 0 0 0 0 0 0 0 0 0 0 0
0 0 0 0 0 0 0 0 0 0 0 0 0 0 0 0 0 0 0 0 0 0 0 0 0 0 0 0 0 0 0 0 0 0 0 0 0 0 0 0 0 0 0
0 0 0 0 0 0 0 0 0 0 0 0 0 0 0 0 0 0 0 0 0 0 0 0 0 0 0 0 0 0 0 0 0 0 0 0 0 0 0 0 0 0 0
0 0 0 0 0 0 0 0 0 0 0 0 0 0 0 0 0 0 0 0 0 0 0 0 0 0 0 0 0 0 0 0 0 0 0 0 0 0 0 0 0 0 0
0 0 0 0 0 0 0 0 0 0 0 0 0 0 0 0 0 0 0 0 0 0 0 0 0 0 0 0 0 0 0 0 0 0 0 0 0 0 0 0 0 0 0
0 0 0 0 0 0 0 0 0 0 0 0 0 0 0 0 0 0 0 0 0 0 0 0 0 0 0 0 0 0 0 0 0 0 0 0 0 0 0 0 0 0 0
0 0 0 0 0 0 0 0 0 0 0 0 1 0 0 0 0 0 0 0 0 0 0 0 0 0 0 0 0 0 0 0 0 0 0 0 0 0 0 0 0 0 0
0 0 0 0 0 0 0 0 0 1 1 1 1 1 1 1 0 0 0 0 0 0 0 0 0 0 0 0 0 0 0 0 0 0 0 0 0 0 0 0 0 0 0
0 0 0 0 0 0 0 1 1 1 1 1 1 1 1 1 0 0 0 0 0 0 0 0 0 0 0 0 0 0 0 0 0 0 0 0 0 0 0 0 0 0 0
0 0 0 0 0 0 0 1 1 1 1 1 1 1 1 1 1 1 0 0 0 0 0 0 0 0 0 0 0 0 0 0 0 0 0 0 0 0 0 0 0 0 0
0 0 0 0 0 0 0 1 1 1 1 1 1 1 1 1 1 1 1 0 0 0 0 0 0 0 0 0 0 0 0 0 0 0 0 0 0 0 0 0 0 0 0
0 0 0 0 0 0 0 0 1 1 1 1 1 1 0 0 0 0 0 0 0 0 0 0 0 0 0 0 0 0 0 0 0 0 0 0 0 0 0 0 0 0 0
0 0 0 0 0 0 0 0 0 1 1 1 0 0 0 0 0 0 0 0 0 0 0 0 0 0 0 0 0 0 0 0 0 0 0 0 0 0 0 0 0 0 0
0 0 0 0 0 0 0 0 0 0 0 0 0 0 0 0 0 0 0 0 0 0 0 0 0 0 0 0 0 0 0 0 0 0 0 0 0 0 0 0 0 0 0
0 0 0 0 0 0 0 0 0 0 0 0 0 0 0 0 0 0 0 0 0 0 0 0 0 0 0 0 0 0 0 0 0 0 0 0 0 0 0 0 0 0 0
0 0 0 0 0 0 0 0 0 0 0 0 0 0 0 0 0 0 0 0 0 0 0 0 0 0 0 0 0 0 0 0 0 0 0 0 0 0 0 0 0 0 0
0 0 0 0 0 0 0 0 0 0 0 0 0 0 0 0 0 0 0 0 0 0 0 0 0 0 0 0 0 0 0 0 0 0 0 0 0 0 0 0 0 0 0
0 0 0 0 0 0 0 0 0 0 0 0 0 0 0 0 0 0 0 0 0 0 0 0 0 0 0 0 0 0 0 0 0 0 0 0 0 0 0 0 0 0 0
0 0 0 0 0 0 0 0 0 0 0 0 0 0 0 0 0 0 0 0 0 0 0 0 0 0 0 0 0 0 0 0 0 0 0 0 0 0 0 0 0 0 0
0 0 0 0 0 0 0 0 0 0 0 0 0 0 0 0 0 0 0 0 0 0 0 0 0 0 0 0 0 0 0 0 0 0 0 0 0 0 0 0 0 0 0
0 0 0 0 0 0 0 0 0 0 0 0 0 0 0 0 0 0 0 0 0 0 0 0 0 0 0 0 0 0 0 0 0 0 0 0 0 0 0 0 0 0 0
0 0 0 0 0 0 0 0 0 0 0 0 0 0 0 0 0 0 0 0 0 0 0 0 0 0 0 0 0 0 0 0 0 0 0 0 0 0 0 0 0 0 0
Wind_Speed
8 11 11 12 14 13 13 12 12 12 12 12 12 11 11 12 12 13 13 13 13 13 13 13 13 13 13 13 13 12 12 13 13 13 14 15 15 16 16 15 11 11 14
8 12 10 11 13 13 12 12 12 12 12 11 11 11 11 11 12 13 13 12 12 12 13 12 12 12 12 11 11 10 10 10 11 10 7 11 13 14 15 15 15 12 16
8 12 12 10 12 12 12 11 11 11 11 11 11 10 10 11 11 12 12 11 11 11 12 12 12 11 11 10 9 8 8 8 8 6 3 7 11 13 14 14 14 15 15
8 11 12 11 11 12 12 11 10 10 11 10 10 10 10 11 11 11 11 10 10 10 11 11 11 11 11 10 9 8 7 6 6 2 4 7 8 12 12 13 13 14 14
8 10 10 9 10 11 11 10 9 9 9 9 10 10 10 10 10 10 10 10 10 10 10 11 11 11 11 10 9 8 7 6 3 2 6 6 7 10 10 11 11 12 12
6 9 10 8 9 11 11 10 9 9 8 8 8 9 9 10 10 10 9 9 9 9 10 10 11 11 10 10 9 8 6 4 1 4 5 5 6 8 8 9 9 10 10
5 7 8 7 8 9 10 10 9 8 8 8 7 8 9 10 9 9 9 9 9 9 10 10 11 11 10 10 9 8 7 5 2 4 4 5 7 8 8 8 8 8 9
5 4 5 5 5 7 9 9 8 8 8 7 6 7 8 9 9 9 9 8 8 9 9 10 10 11 11 11 10 9 8 6 2 4 4 5 8 7 7 7 7 7 8
6 3 1 4 6 6 7 8 8 8 7 7 6 6 7 8 9 9 8 8 8 8 9 9 10 10 11 11 11 10 9 8 4 4 4 5 8 7 6 6 6 6 6
8 6 3 2 4 6 7 7 7 7 7 7 6 6 7 8 8 8 8 8 8 8 8 8 9 9 10 11 11 10 8 4 5 4 3 6 9 7 6 6 5 5 5
8 7 5 4 3 4 6 6 7 7 6 6 6 6 6 6 6 6 7 8 9 8 7 7 8 8 6 8 9 8 4 4 5 4 4 10 10 8 6 5 5 4 4
9 8 6 5 4 4 4 5 5 5 5 5 4 5 4 3 3 4 7 7 8 8 7 8 7 5 3 4 5 4 3 5 4 3 4 10 11 10 8 6 4 4 3
8 8 7 6 5 4 3 3 3 2 2 3 3 3 2 3 3 3 3 4 4 5 4 5 3 2 3 3 3 4 4 4 3 3 4 9 10 10 10 8 5 4 3
9 9 8 6 4 3 3 3 2 2 1 1 1 1 2 2 2 3 2 2 2 1 2 2 2 2 2 2 3 3 3 3 3 3 3 6 9 10 10 10 8 6 4
9 10 9 7 3 1 3 2 2 2 2 2 2 2 1 1 1 2 1 1 1 1 0 1 1 1 1 1 1 2 3 4 4 4 3 4 7 9 10 11 10 8 7
10 10 9 7 4 3 3 4 4 4 5 6 6 7 6 3 2 2 2 1 2 1 1 1 1 0 1 1 1 2 3 4 4 4 5 4 4 6 8 9 11 11 10
9 9 9 8 8 9 9 9 7 8 8 8 8 9 9 7 6 5 4 4 3 3 3 2 3 2 2 2 3 3 3 4 5 5 5 4 4 4 5 8 9 11 12
8 8 9 8 11 13 12 12 10 10 10 9 9 9 12 11 10 7 6 6 5 4 4 3 3 2 2 3 3 3 3 3 5 5 5 5 4 4 4 6 8 9 11
7 7 8 10 12 13 14 13 12 11 11 9 9 9 11 12 11 9 7 6 6 5 5 4 3 3 3 4 4 4 4 4 4 4 5 5 5 5 5 6 7 8 10
7 7 8 9 11 12 11 11 10 12 11 10 10 11 12 11 11 9 8 9 7 6 6 5 5 4 4 4 4 4 4 3 3 3 4 3 3 5 5 6 5 5 8
8 9 9 9 7 6 6 7 8 9 9 10 10 13 13 12 12 11 8 9 8 8 8 8 5 6 6 5 4 4 3 1 2 2 3 3 4 4 5 6 5 6 5
8 9 9 9 9 8 8 7 8 9 9 9 9 12 14 13 13 10 11 9 9 8 11 11 9 6 5 7 6 5 5 2 3 2 3 3 5 5 6 6 7 6 7
8 8 8 9 10 11 11 10 9 8 8 8 10 10 12 13 13 13 13 11 11 10 10 11 10 10 7 7 7 6 5 5 7 4 3 3 6 7 7 7 8 8 8
7 7 8 10 10 10 9 9 11 10 9 9 8 9 11 13 13 13 13 12 11 10 10 10 10 8 9 7 5 6 5 5 6 7 5 4 7 9 9 9 10 10 9
6 7 8 10 11 11 11 12 13 12 11 9 9 10 10 10 11 12 11 10 10 9 10 10 9 9 7 7 6 5 5 4 4 5 8 9 9 7 8 10 9 8 9
7 7 8 10 11 10 11 12 14 15 12 11 10 9 8 7 8 11 10 9 9 8 8 8 8 9 7 7 5 5 5 5 5 6 9 12 12 10 11 8 7 7 8
Wind_Direction
171 164 153 152 146 141 136 130 126 123 121 119 117 114 110 106 100 94 85 77 71 67 64 61 57 54 54 57 58 57 58 60 62 63 63 61 59 59 54 42 39 56 48
160 163 155 155 150 145 141 136 134 131 129 126 122 119 115 110 103 96 87 79 72 67 64 61 56 51 48 49 52 55 59 62 63 60 61 77 65 60 57 52 47 49 48
158 162 161 157 152 147 142 140 139 137 134 131 126 122 118 112 105 99 90 81 72 66 62 57 53 48 43 41 43 48 58 65 65 52 33 70 72 62 58 54 50 48 46
158 165 165 157 155 150 146 145 145 141 138 135 131 126 122 115 107 101 92 82 72 65 60 54 47 42 37 33 33 39 55 69 64 2 59 62 68 61 55 52 49 46 43
157 169 160 162 160 154 151 151 151 147 143 140 136 133 127 117 108 100 91 80 70 63 58 52 44 36 32 28 28 35 51 71 68 51 64 59 66 60 51 48 46 44 40
152 171 162 171 166 160 157 158 157 154 150 146 144 140 130 121 111 102 91 80 69 62 57 49 41 34 30 26 27 36 45 55 235 67 57 48 55 54 45 43 41 40 37
133 167 169 178 176 166 164 164 163 162 159 155 151 147 136 128 118 108 95 82 70 64 58 50 42 36 31 27 29 36 43 16 25 60 46 38 45 39 36 33 32 33 32
95 141 167 177 190 178 173 171 169 170 168 164 162 157 148 139 127 113 97 84 73 66 61 54 46 40 35 31 32 37 35 10 44 51 39 35 31 20 27 26 24 28 31
63 79 128 197 201 197 189 184 179 179 178 175 173 168 157 147 135 120 105 90 78 71 67 61 53 46 40 36 37 39 36 11 5 35 25 23 10 9 18 18 19 24 29
49 41 22 302 232 216 206 197 191 190 191 187 183 172 160 152 142 129 119 103 89 80 76 72 65 57 48 43 39 35 22 350 21 20 15 19 0 357 7 9 8 16 25
34 23 6 335 284 245 227 203 198 199 201 200 192 175 174 174 157 140 120 111 102 95 90 88 82 70 61 53 42 29 11 17 13 11 17 6 354 348 349 355 356 1 12
7 2 353 334 303 266 237 220 211 202 205 215 209 188 185 171 143 129 126 125 120 115 111 111 105 90 48 37 46 24 25 13 4 10 20 4 353 345 339 338 336 337 351
348 349 344 330 301 265 232 218 205 193 203 216 219 203 179 159 141 147 143 141 138 135 130 136 136 70 49 39 24 26 19 5 2 356 11 2 351 343 336 330 322 315 313
354 352 345 335 305 254 226 206 195 171 176 198 175 174 164 151 161 166 159 161 161 150 149 154 136 118 86 58 33 21 13 360 356 346 356 357 347 344 337 328 317 305 288
359 353 350 345 336 218 184 164 140 116 92 70 48 39 54 123 143 138 132 142 135 70 100 128 139 146 147 53 13 358 356 350 340 332 330 343 337 339 338 334 323 308 293
358 352 351 8 37 87 103 94 73 64 61 55 47 37 37 42 63 91 90 76 63 50 41 15 36 10 338 340 331 340 332 332 325 320 319 315 311 326 330 330 330 324 312
356 356 8 26 55 74 77 73 63 58 58 54 47 41 42 44 51 59 58 49 41 42 45 40 31 12 351 335 328 329 318 314 312 310 310 309 309 305 314 324 328 328 327
7 16 29 47 65 72 74 71 66 61 60 54 48 45 44 46 51 57 56 50 46 49 48 48 32 21 9 344 328 317 298 292 292 299 301 305 310 314 312 326 326 326 325
21 34 51 63 74 79 80 77 72 66 61 55 50 46 46 48 52 59 57 52 51 52 48 46 40 27 11 349 321 302 292 287 295 300 306 312 314 315 318 327 324 319 322
43 54 66 73 82 89 87 83 77 68 62 57 52 48 48 49 52 59 57 49 47 49 42 34 43 40 20 341 312 297 293 301 312 331 333 337 337 334 328 329 321 319 319
57 61 67 75 81 92 92 87 81 72 65 61 55 50 50 50 52 54 56 50 47 48 40 29 23 31 23 350 323 319 309 317 20 28 16 11 16 3 349 341 333 329 320
61 65 69 72 78 81 88 89 87 92 77 70 64 56 53 53 52 53 54 53 48 48 42 32 25 22 27 14 351 329 330 326 39 9 17 18 13 4 358 351 341 329 320
63 62 71 76 80 86 96 102 107 100 91 75 66 61 53 55 57 57 55 54 50 48 44 36 27 27 22 27 23 2 344 339 329 313 348 350 357 350 343 339 329 320 313
73 75 80 83 83 87 96 103 104 99 93 84 79 74 66 59 58 58 58 56 54 51 48 41 36 29 27 23 22 21 8 337 320 319 314 334 344 332 329 326 320 317 312
90 90 91 90 87 90 96 101 100 99 100 101 95 85 76 66 59 57 56 57 55 51 47 43 40 36 33 28 19 2 355 339 332 309 310 321 321 322 324 318 311 310 313
108 104 105 101 95 96 99 100 105 109 112 109 100 93 82 73 63 56 55 55 52 49 43 37 36 36 30 26 19 13 358 339 334 317 307 312 313 316 317 307 305 314 317